TimeEDT,TemperatureF,Dew PointF,Humidity,Sea Level PressureIn,VisibilityMPH,Wind Direction,Wind SpeedMPH,Gust SpeedMPH,PrecipitationIn,Events,Conditions,WindDirDegrees,DateUTC
12:15 AM,55.4,55.4,100,30.04,5.0,Calm,Calm,-,N/A,,Clear,0,2012-10-06 04:15:00
12:35 AM,55.4,55.4,100,30.04,7.0,Calm,Calm,-,N/A,,Clear,0,2012-10-06 04:35:00
12:55 AM,55.4,55.4,100,30.04,0.8,Calm,Calm,-,N/A,,Mostly Cloudy,0,2012-10-06 04:55:00
1:15 AM,55.4,55.4,100,30.03,1.0,Calm,Calm,-,N/A,,Mostly Cloudy,0,2012-10-06 05:15:00
1:35 AM,55.4,55.4,100,30.03,2.5,Calm,Calm,-,N/A,,Clear,0,2012-10-06 05:35:00
1:55 AM,55.4,55.4,100,30.02,5.0,Calm,Calm,-,N/A,,Clear,0,2012-10-06 05:55:00
2:15 AM,53.6,53.6,100,30.02,3.0,Calm,Calm,-,N/A,,Clear,0,2012-10-06 06:15:00
2:35 AM,55.4,55.4,100,30.01,3.0,Calm,Calm,-,N/A,,Clear,0,2012-10-06 06:35:00
2:55 AM,55.4,55.4,100,30.01,0.8,Calm,Calm,-,N/A,,Mist,0,2012-10-06 06:55:00
3:15 AM,53.6,53.6,100,30.00,10.0,Calm,Calm,-,N/A,,Clear,0,2012-10-06 07:15:00
3:35 AM,53.6,53.6,100,30.00,2.0,Calm,Calm,-,N/A,,Scattered Clouds,0,2012-10-06 07:35:00
3:55 AM,55.4,55.4,100,29.99,7.0,Calm,Calm,-,N/A,,Mostly Cloudy,0,2012-10-06 07:55:00
4:15 AM,53.6,53.6,100,29.98,2.0,Calm,Calm,-,N/A,,Overcast,0,2012-10-06 08:15:00
4:35 AM,53.6,53.6,100,29.98,5.0,Calm,Calm,-,N/A,,Mostly Cloudy,0,2012-10-06 08:35:00
4:55 AM,53.6,53.6,100,29.98,7.0,Calm,Calm,-,N/A,,Scattered Clouds,0,2012-10-06 08:55:00
5:15 AM,53.6,53.6,100,29.98,2.0,Calm,Calm,-,N/A,,Clear,0,2012-10-06 09:15:00
5:35 AM,53.6,53.6,100,29.98,1.0,Calm,Calm,-,N/A,,Mist,0,2012-10-06 09:35:00
5:55 AM,53.6,53.6,100,29.98,5.0,Calm,Calm,-,N/A,,Clear,0,2012-10-06 09:55:00
6:15 AM,53.6,53.6,100,29.98,7.0,Calm,Calm,-,N/A,,Clear,0,2012-10-06 10:15:00
6:35 AM,55.4,55.4,100,29.98,3.0,Calm,Calm,-,N/A,,Mostly Cloudy,0,2012-10-06 10:35:00
6:55 AM,57.2,57.2,100,29.99,10.0,Calm,Calm,-,N/A,,Overcast,0,2012-10-06 10:55:00
7:15 AM,57.2,57.2,100,29.99,7.0,Calm,Calm,-,N/A,,Mostly Cloudy,0,2012-10-06 11:15:00
7:35 AM,55.4,55.4,100,29.99,7.0,Calm,Calm,-,N/A,,Clear,0,2012-10-06 11:35:00
7:55 AM,57.2,57.2,100,29.99,7.0,Calm,Calm,-,N/A,,Clear,0,2012-10-06 11:55:00
8:15 AM,59.0,59.0,100,29.99,7.0,Calm,Calm,-,N/A,,Clear,0,2012-10-06 12:15:00
8:35 AM,60.8,60.8,100,29.98,10.0,Calm,Calm,-,N/A,,Clear,0,2012-10-06 12:35:00
8:55 AM,62.6,62.6,100,29.98,10.0,SW,5.8,-,N/A,,Clear,230,2012-10-06 12:55:00
9:15 AM,64.4,62.6,94,29.99,10.0,SW,6.9,-,N/A,,Clear,230,2012-10-06 13:15:00
9:35 AM,66.2,62.6,88,29.99,10.0,WSW,5.8,-,N/A,,Scattered Clouds,240,2012-10-06 13:35:00
9:55 AM,68.0,62.6,83,29.98,10.0,SW,5.8,-,N/A,,Clear,220,2012-10-06 13:55:00
10:15 AM,69.8,62.6,78,29.98,10.0,WSW,4.6,-,N/A,,Clear,240,2012-10-06 14:15:00
10:35 AM,71.6,60.8,69,29.97,10.0,WSW,6.9,-,N/A,,Clear,250,2012-10-06 14:35:00
10:55 AM,71.6,60.8,69,29.97,10.0,SW,5.8,-,N/A,,Clear,230,2012-10-06 14:55:00
11:15 AM,73.4,60.8,65,29.96,10.0,North,-9999.0,-,N/A,,Clear,0,2012-10-06 15:15:00
11:35 AM,75.2,60.8,61,29.96,10.0,SW,5.8,-,N/A,,Clear,230,2012-10-06 15:35:00
11:55 AM,77.0,60.8,57,29.95,10.0,SW,5.8,-,N/A,,Clear,220,2012-10-06 15:55:00
12:15 PM,77.0,59.0,54,29.95,10.0,WSW,6.9,-,N/A,,Clear,250,2012-10-06 16:15:00
12:35 PM,78.8,59.0,51,29.95,10.0,WSW,6.9,16.1,N/A,,Clear,240,2012-10-06 16:35:00
12:55 PM,78.8,57.2,47,29.94,10.0,WSW,10.4,-,N/A,,Clear,240,2012-10-06 16:55:00
1:15 PM,78.8,59.0,51,29.94,10.0,WSW,8.1,-,N/A,,Clear,250,2012-10-06 17:15:00
1:35 PM,80.6,59.0,48,29.93,10.0,SW,10.4,-,N/A,,Clear,220,2012-10-06 17:35:00
1:55 PM,78.8,59.0,51,29.93,10.0,WSW,11.5,17.3,N/A,,Mostly Cloudy,240,2012-10-06 17:55:00
2:15 PM,78.8,59.0,51,29.92,10.0,WSW,5.8,-,N/A,,Mostly Cloudy,250,2012-10-06 18:15:00
2:35 PM,78.8,60.8,54,29.92,10.0,West,5.8,-,N/A,,Mostly Cloudy,270,2012-10-06 18:35:00
2:55 PM,78.8,60.8,54,29.92,10.0,West,3.5,-,N/A,,Mostly Cloudy,280,2012-10-06 18:55:00
3:15 PM,78.8,60.8,54,29.92,10.0,Calm,Calm,-,N/A,,Mostly Cloudy,0,2012-10-06 19:15:00
3:35 PM,78.8,59.0,51,29.92,10.0,NW,4.6,-,N/A,,Mostly Cloudy,310,2012-10-06 19:35:00
3:55 PM,77.0,60.8,57,29.92,10.0,NW,5.8,-,N/A,,Overcast,320,2012-10-06 19:55:00
4:15 PM,75.2,60.8,61,29.92,10.0,NW,5.8,-,N/A,,Overcast,320,2012-10-06 20:15:00
4:35 PM,75.2,60.8,61,29.92,10.0,Calm,Calm,-,N/A,,Overcast,0,2012-10-06 20:35:00
4:55 PM,73.4,62.6,69,29.92,10.0,Calm,Calm,-,N/A,,Overcast,0,2012-10-06 20:55:00
5:15 PM,71.6,62.6,73,29.92,10.0,Calm,Calm,-,N/A,,Overcast,0,2012-10-06 21:15:00
5:35 PM,73.4,62.6,69,29.92,10.0,Calm,Calm,-,N/A,,Overcast,0,2012-10-06 21:35:00
5:55 PM,71.6,64.4,78,29.94,10.0,Calm,Calm,-,N/A,,Overcast,0,2012-10-06 21:55:00
6:15 PM,71.6,62.6,73,29.94,10.0,Calm,Calm,-,N/A,,Mostly Cloudy,0,2012-10-06 22:15:00
6:35 PM,69.8,60.8,73,29.95,10.0,NNW,4.6,-,N/A,,Scattered Clouds,340,2012-10-06 22:35:00
6:55 PM,69.8,60.8,73,29.96,10.0,NNW,4.6,-,N/A,,Scattered Clouds,340,2012-10-06 22:55:00
7:15 PM,69.8,59.0,68,29.97,10.0,NNW,6.9,-,N/A,,Mostly Cloudy,340,2012-10-06 23:15:00
7:35 PM,68.0,59.0,73,29.97,10.0,NNW,5.8,-,N/A,,Overcast,340,2012-10-06 23:35:00
7:55 PM,68.0,55.4,64,29.98,10.0,NNW,5.8,-,N/A,,Overcast,340,2012-10-06 23:55:00
8:15 PM,68.0,55.4,64,29.99,10.0,NW,3.5,-,N/A,,Mostly Cloudy,320,2012-10-07 00:15:00
8:35 PM,64.4,55.4,73,30.00,10.0,Calm,Calm,-,N/A,,Overcast,0,2012-10-07 00:35:00
8:55 PM,64.4,55.4,73,30.00,10.0,NNW,4.6,-,N/A,,Overcast,340,2012-10-07 00:55:00
9:15 PM,64.4,55.4,73,30.00,10.0,North,5.8,-,N/A,,Overcast,360,2012-10-07 01:15:00
9:35 PM,64.4,55.4,73,30.00,10.0,North,4.6,-,N/A,,Overcast,350,2012-10-07 01:35:00
9:55 PM,64.4,55.4,73,30.00,10.0,Calm,Calm,-,N/A,,Overcast,0,2012-10-07 01:55:00
10:15 PM,64.4,55.4,73,30.00,10.0,North,3.5,-,N/A,,Overcast,10,2012-10-07 02:15:00
10:35 PM,64.4,53.6,68,30.01,10.0,NNE,5.8,-,N/A,,Overcast,20,2012-10-07 02:35:00